CZ-6A DEB

Satellite information

Favourite Embed

Satellite Type and Status

DEBRISIN ORBIT

Key statistics

Satellite CZ-6A DEB at a glance.

Uptime

1128

Days in orbit

Revolutions

≈ 14.4

Per day

Orbit

SSO

Sun Synchronous Orbit

Inclination

98.8

Latest

Satellite identification and parameters

Extended collection of information and parameters for CZ-6A DEB.

Object identification

Identified? True

Debris? True

Object name: CZ-6A DEB

International designator: 2022-151AGS

Object number (NORAD): 56666

Object ID (CCSDS): 56666

Country: PEOPLES REPUBLIC OF CHINA (PRC)

Current information (Y/N): Y

RCS size: SMALL

Orbital parameters

Period: 99.763 minutes

Inclination: 98.753 deg

SMA: 7125.359 km

Apoapsis: 802.745 km

Periapsis: 691.702 km

RAAN: 33.4543 deg

Eccentricy: 0.00779207

Argument of periapsis: 134.8103 deg

Mean anomaly: 225.9456 deg

Mean motion: 14.4341986 rev/day

Mean motion (dot): 0.00003589 rev/day2

B* drag term: 0.0010377403 1/REarth

Two-line elements (TLE)

Creation date: Dec. 9, 2025, 1:02 p.m.

Reference frame: TEME

Reference center: EARTH

Epoch: Dec. 9, 2025, 2:34 a.m. UTC

TLE line 0: 0 CZ-6A DEB

TLE line 1: 1 56666U 22151AGS 25343.10720139 .00003589 00000-0 10377-2 0 9995

TLE line 2: 2 56666 98.7530 33.4543 0077921 134.8103 225.9456 14.43419860137960

Live tracking on map

Real-time ground track for satellite CZ-6A DEB.

In-orbit conjunctions

A list of the most updated potential collisions computed for object CZ-6A DEB.

Target Orbit TCA Probability of collision Miss distance Type
FENGYUN 1C DEB SSO 2024-11-10 15:52:08 0.0001683669 206.0 (m) DEBRIS
CZ-6A DEB LEO 2024-10-18 19:32:05 0.0002009999 314.0 (m) DEBRIS
CZ-6A DEB LEO 2024-10-01 07:14:20 0.0001198541 651.0 (m) DEBRIS

Associated space launch

Chinese satellite reported for atmospheric/ocean/environmental/spatial parameter research purposes, details TBD.

CZ-6A DEB was lifted into orbit during the mission ‘Long March 6A | Yunhai 3’, on board a Long March 6A space rocket.

The launch took place on Nov. 11, 2022, 10:52 p.m. from Launch Complex 9A.

For more information about the launch, click the button.

Launch to space Long March 6A | Yunhai 3
Long March 6A | Yunhai 3

Agency: N/A

Status: Launch Successful

Launch date: Nov. 11, 2022, 10:52 p.m. UTC

Rocket: Long March 6A

Launch pad: Launch Complex 9A

Location: Taiyuan Satellite Launch Center, People's Republic of China

...

Latest news about this satellite

There are no fresh news available about this satellite. Check back as we update our databases every day.


Newsletter sign-up

Weekly statistics, charts and insights to help you stay on top of the space industry.